Regional Weather Roundup
Issued by NWS

Home | Current Version | Previous Version | Text Only | Print | Product List | Glossary Off
Versions: 1 2 3 4 5 6 7 8 9 10 11 12 13 14 15 16 17 18 19 20 21 22 23 24 25 26 27 28 29 30 31 32 33 34 35 36 37 38 39 40 41 42 43 44 45 46 47 48 49 50

000
ASUS43 KLMK 261402
RWRKY
KENTUCKY REGIONAL WEATHER ROUNDUP
NATIONAL WEATHER SERVICE LOUISVILLE KY
1000 AM EDT THU MAR 26 2015

NOTE "FAIR" INDICATES FEW OR NO CLOUDS BELOW 12,000 FEET
WITH NO SIGNIFICANT WEATHER AND/OR OBSTRUCTIONS TO VISIBILITY.

KYZ001>023-026-027-061>063-070>075-261500-
WESTERN AND SOUTH CENTRAL KENTUCKY

CITY           SKY/WX    TMP DP  RH WIND       PRES   REMARKS
PADUCAH        LGT RAIN  46  43  89 N16       29.96S
HENDERSON      CLOUDY    45  39  81 N9G16     29.96R
OWENSBORO      LGT RAIN  46  45  97 N12       29.94S FOG
HOPKINSVILLE   CLOUDY    51  49  94 NW12G22   29.91R
BOWLING GREEN  CLOUDY    57  53  86 W9        29.86F FOG
GLASGOW        NOT AVBL
$$

KYZ024-025-028>034-038-045-046-053-261500-
NORTH CENTRAL KENTUCKY

CITY           SKY/WX    TMP DP  RH WIND       PRES   REMARKS
LOUISVILLE/SDF LGT RAIN  48  45  89 N15       29.89R
LOUISVILLE/LOU LGT RAIN  47  45  93 NW7       29.89R
FORT KNOX      LGT RAIN  47  46  94 NW8       29.87R FOG
$$

KYZ035>037-039>044-047>052-055>060-089>105-261500-
NORTHEAST KENTUCKY

CITY           SKY/WX    TMP DP  RH WIND       PRES   REMARKS
LEXINGTON      LGT RAIN  50  50 100 NW6       29.83S FOG
COVINGTON      RAIN      44  44 100 N9        29.86R FOG
FRANKFORT      CLOUDY    48  45  89 NW9       29.84R
$$

KYZ054-064>069-076>088-106>120-261500-
SOUTHEAST KENTUCKY

CITY           SKY/WX    TMP DP  RH WIND       PRES   REMARKS
JACKSON        LGT RAIN  64  51  62 VRB6      29.83S
LONDON         CLOUDY    63  54  72 SW14G22   29.85F
SOMERSET       NOT AVBL
MIDDLESBORO    CLOUDY    65  56  73 SW8       29.88F
MONTICELLO     CLOUDY    65  59  81 SW10      29.88F
$$



USA.gov is the U.S. government's official web portal to all federal, state and local government web resources and services.